This demonstration page uses our WeatherBlox Daily Observations layout. Learn more.

Left ArrowRight Arrow

39.95238, -75.16362

Hourly Observations for May 22, 2016

Temp ( °F °C ) Dew Point ( °F °C ) Humidity (%) Winds ( mph kmh ) Pressure ( in mb ) Visibility ( mi km ) Precip ( " mm )
12:11 am 00:11 Cloudy with Light Rain 54 12.2 50 10 87 87 NE 13 20 29.85 1011 7 11 0.00 0.03
12:54 am 00:54 Cloudy with Light Rain 53 11.7 50 10 89 89 N 12 19 29.85 1011 7 11 0.02 0.51
1:50 am 01:50 Cloudy with Light Rain 54 12 48 9 82 82 N 12 19 29.83 1010 10 16 0.01 0.25
1:54 am 01:54 Cloudy with Light Rain 53 11.7 49 9.4 86 86 N 9 15 29.83 1010 10 16 0.01 0.25
2:54 am 02:54 Cloudy with Light Rain 53 11.7 49 9.4 86 86 N 9 15 29.82 1010 10 16 0.00 0.03
3:54 am 03:54 Cloudy with Light Rain 52 11.1 49 9.4 89 89 N 12 19 29.82 1010 8 13 0.02 0.51
4:21 am 04:21 Cloudy with Light Rain 52 11.1 48 8.9 86 86 N 9 15 29.83 1010 10 16 0.01 0.25
4:54 am 04:54 Cloudy with Light Rain 52 11.1 48 8.9 86 86 N 8 13 29.83 1010 10 16 0.01 0.25
5:02 am 05:02 Cloudy with Light Rain 52 11.1 48 8.9 86 86 N 8 13 29.83 1010 10 16 0.00 0.03
5:52 am 05:52 Cloudy 54 12 48 9 82 82 N 7 11 29.83 1010 10 16 0.00 0.00
5:54 am 05:54 Cloudy 53 11.7 48 8.9 83 83 N 7 11 29.83 1010 10 16 0.00 0.03
6:54 am 06:54 Cloudy 53 11.7 48 8.9 83 83 N 7 11 29.85 1011 10 16 0.00 0.00
7:54 am 07:54 Cloudy 54 12.2 48 8.9 80 80 VRB 6 9 29.85 1011 10 16 0.00 0.00
8:54 am 08:54 Cloudy 56 13.3 49 9.4 77 77 NNW 8 13 29.86 1011 10 16 0.00 0.00
9:54 am 09:54 Cloudy with Light Rain 56 13.3 49 9.4 77 77 N 7 11 29.86 1011 10 16 0.05 1.27
10:54 am 10:54 Cloudy 60 15.6 48 8.9 65 65 N 9 15 29.85 1011 10 16 0.00 0.03
11:54 am 11:54 Cloudy 64 17.8 51 10.6 63 63 N 8 13 29.85 1011 10 16 0.00 0.00
12:54 pm 12:54 Cloudy 65 18.3 46 7.8 51 51 ENE 12 19 29.83 1010 10 16 0.00 0.00
1:54 pm 13:54 Cloudy 64 17.8 46 7.8 52 52 ENE 13 20 29.84 1011 10 16 0.00 0.00
2:54 pm 14:54 Cloudy with Light Rain 64 17.8 46 7.8 52 52 NE 13 20 29.84 1011 10 16 0.00 0.03
3:54 pm 15:54 Cloudy with Light Rain 64 17.8 49 9.4 58 58 ESE 5 7 29.84 1010 10 16 0.00 0.03
4:54 pm 16:54 Cloudy 64 17.8 48 8.9 56 56 E 3 6 29.84 1010 10 16 0.00 0.03
5:54 pm 17:54 Cloudy 62 16.7 52 11.1 70 70 SSE 5 7 29.85 1011 10 16 0.00 0.00
6:54 pm 18:54 Cloudy with Light Rain 61 16.1 54 12.2 78 78 S 3 6 29.86 1011 10 16 0.02 0.51
7:54 pm 19:54 Cloudy 61 16.1 54 12.2 78 78 S 3 6 29.86 1011 10 16 0.00 0.03
8:54 pm 20:54 Cloudy 61 16.1 54 12.2 78 78 WSW 3 6 29.88 1012 10 16 0.00 0.00
9:54 pm 21:54 Cloudy 59 15 55 12.8 87 87 Calm 29.90 1013 10 16 0.00 0.00
10:54 pm 22:54 Mostly Cloudy 59 15 56 13.3 90 90 Calm 29.91 1013 10 16 0.00 0.00
11:54 pm 23:54 Partly Cloudy 60 15.6 54 12.2 80 80 WNW 7 11 29.91 1013 10 16 0.00 0.00

Powered by AerisWeather